Location: Champs
(48.8539°N, 2.6040°E)
Time: 01:38:36
(UTC+00:00)

USA 308 - Pass Details

Date: 04 June 2022
Orbit: 549 x 558 km, 54.0° (Epoch: 14 June)

Event Time Altitude Azimuth Distance (km) Brightness Sun altitude
Rises 01:41:07 0° 292° (WNW) 2,739 6.3 -14.4°
Reaches altitude 10° 01:43:25 10° 298° (WNW) 1,845 5.5 -14.2°
Maximum altitude 01:47:30 48° 14° (NNE) 737 3.9 -13.9°
Drops below altitude 10° 01:51:34 10° 89° (E) 1,847 5.9 -13.6°
Sets 01:53:52 0° 95° (E) 2,742 6.7 -13.4°
